Time,TemperatureF,DewpointF,PressureIn,WindDirection,WindDirectionDegrees,WindSpeedMPH,WindSpeedGustMPH,Humidity,HourlyPrecipIn,Conditions,Clouds,dailyrainin,SoftwareType,DateUTC
2013-07-07 00:00:00,76.8,45.6,17.72,NW,305,3.6,5.4,33,0.00,,---,0.00,VWS V13.01,2013-07-07 07:00:00,
2013-07-07 00:20:00,76.8,44.8,17.72,NW,305,5.4,7.6,32,0.00,,---,0.00,VWS V13.01,2013-07-07 07:20:00,
2013-07-07 00:40:00,76.8,43.9,17.72,West,266,3.6,5.4,31,0.00,,---,0.00,VWS V13.01,2013-07-07 07:40:00,
2013-07-07 01:00:00,76.5,43.6,17.72,SSW,212,2.7,4.9,31,0.00,,---,0.00,VWS V13.01,2013-07-07 08:00:00,
2013-07-07 01:20:00,76.1,43.3,17.72,SW,222,2.7,4.0,31,0.00,,---,0.00,VWS V13.01,2013-07-07 08:20:00,
2013-07-07 01:40:00,75.6,44.5,17.72,SW,222,0.0,3.1,33,0.00,,---,0.00,VWS V13.01,2013-07-07 08:40:00,
2013-07-07 02:00:00,74.8,45.4,17.72,SW,220,3.1,3.6,35,0.00,,---,0.00,VWS V13.01,2013-07-07 09:00:00,
2013-07-07 02:20:00,74.3,45.7,17.72,SW,225,0.0,4.0,36,0.00,,---,0.00,VWS V13.01,2013-07-07 09:20:00,
2013-07-07 02:40:00,73.6,48.5,17.72,SW,219,2.7,4.0,41,0.00,,---,0.00,VWS V13.01,2013-07-07 09:40:00,
2013-07-07 03:00:00,73.2,48.8,17.72,SW,220,0.0,4.0,42,0.00,,---,0.00,VWS V13.01,2013-07-07 10:00:00,
2013-07-07 03:20:00,72.7,48.9,17.72,SW,220,0.0,3.6,43,0.00,,---,0.00,VWS V13.01,2013-07-07 10:20:00,
2013-07-07 03:40:00,72.3,49.2,17.72,SW,220,2.7,3.6,44,0.00,,---,0.00,VWS V13.01,2013-07-07 10:40:00,
2013-07-07 04:00:00,71.8,48.7,17.72,SW,230,3.1,4.0,44,0.00,,---,0.00,VWS V13.01,2013-07-07 11:00:00,
2013-07-07 04:20:00,71.6,48.6,17.72,SW,224,2.7,4.0,44,0.00,,---,0.00,VWS V13.01,2013-07-07 11:20:00,
2013-07-07 04:40:00,71.6,47.9,17.72,SW,221,3.1,4.0,43,0.00,,---,0.00,VWS V13.01,2013-07-07 11:40:00,
2013-07-07 05:00:00,71.6,47.9,17.72,SW,220,0.0,4.0,43,0.00,,---,0.00,VWS V13.01,2013-07-07 12:00:00,
2013-07-07 05:20:00,71.6,47.3,17.72,SW,220,0.0,0.0,42,0.00,,---,0.00,VWS V13.01,2013-07-07 12:20:00,
2013-07-07 05:40:00,71.4,47.8,17.72,SW,220,0.0,0.0,43,0.00,,---,0.00,VWS V13.01,2013-07-07 12:40:00,
2013-07-07 06:00:00,71.6,47.9,17.72,SW,227,0.0,0.0,43,0.00,,---,0.00,VWS V13.01,2013-07-07 13:00:00,
2013-07-07 06:20:00,72.1,47.8,17.72,SW,227,0.0,0.0,42,0.00,,---,0.00,VWS V13.01,2013-07-07 13:20:00,
2013-07-07 06:40:00,72.9,48.5,17.72,SW,226,0.0,0.0,42,0.00,,---,0.00,VWS V13.01,2013-07-07 13:40:00,
2013-07-07 07:00:00,73.9,50.1,17.72,SW,226,0.0,0.0,43,0.00,,---,0.00,VWS V13.01,2013-07-07 14:00:00,
2013-07-07 07:20:00,75.0,50.4,17.72,West,266,0.0,0.0,42,0.00,,---,0.00,VWS V13.01,2013-07-07 14:20:00,
2013-07-07 07:40:00,75.9,50.5,17.72,NE,41,4.0,4.9,41,0.00,,---,0.00,VWS V13.01,2013-07-07 14:40:00,
2013-07-07 08:00:00,77.2,46.7,17.72,SE,146,0.0,4.5,34,0.00,,---,0.00,VWS V13.01,2013-07-07 15:00:00,
2013-07-07 08:20:00,78.8,44.8,17.72,SE,129,4.0,5.4,30,0.00,,---,0.00,VWS V13.01,2013-07-07 15:20:00,
2013-07-07 08:40:00,80.1,45.9,17.72,SE,138,3.1,5.4,30,0.00,,---,0.00,VWS V13.01,2013-07-07 15:40:00,
2013-07-07 09:00:00,81.5,43.3,17.72,ESE,119,0.0,5.8,26,0.00,,---,0.00,VWS V13.01,2013-07-07 16:00:00,
2013-07-07 09:20:00,82.0,43.8,17.72,NNE,31,0.0,5.4,26,0.00,,---,0.00,VWS V13.01,2013-07-07 16:20:00,
2013-07-07 09:40:00,82.8,41.2,17.72,NE,45,4.0,5.4,23,0.00,,---,0.00,VWS V13.01,2013-07-07 16:40:00,
2013-07-07 10:00:00,84.7,40.5,17.72,ENE,62,3.6,5.4,21,0.00,,---,0.00,VWS V13.01,2013-07-07 17:00:00,
2013-07-07 10:20:00,85.1,40.8,17.72,NW,310,0.0,3.6,21,0.00,,---,0.00,VWS V13.01,2013-07-07 17:20:00,
2013-07-07 10:40:00,85.8,40.2,17.72,WSW,245,2.7,3.1,20,0.00,,---,0.00,VWS V13.01,2013-07-07 17:40:00,
2013-07-07 11:00:00,87.8,39.1,17.72,ESE,120,3.1,4.0,18,0.00,,---,0.00,VWS V13.01,2013-07-07 18:00:00,
2013-07-07 11:20:00,89.8,40.7,17.72,NNE,33,4.0,8.1,18,0.00,,---,0.00,VWS V13.01,2013-07-07 18:20:00,
2013-07-07 11:40:00,90.7,41.4,17.72,SE,137,5.4,8.3,18,0.00,,---,0.00,VWS V13.01,2013-07-07 18:40:00,
2013-07-07 12:00:00,92.5,41.4,17.72,NE,48,4.9,8.1,17,0.00,,---,0.00,VWS V13.01,2013-07-07 19:00:00,
2013-07-07 12:20:00,93.7,40.8,17.72,West,281,3.6,13.2,16,0.00,,---,0.00,VWS V13.01,2013-07-07 19:20:00,
2013-07-07 12:40:00,95.4,42.1,17.72,NNE,21,4.0,10.1,16,0.00,,---,0.00,VWS V13.01,2013-07-07 19:40:00,
2013-07-07 13:00:00,97.0,38.0,17.72,NW,317,4.0,9.6,13,0.00,,---,0.00,VWS V13.01,2013-07-07 20:00:00,
2013-07-07 13:20:00,97.5,38.5,17.72,North,357,2.2,8.7,13,0.00,,---,0.00,VWS V13.01,2013-07-07 20:20:00,
2013-07-07 13:40:00,96.6,39.7,17.72,North,0,5.4,10.1,14,0.00,,---,0.00,VWS V13.01,2013-07-07 20:40:00,
2013-07-07 14:00:00,94.6,38.1,17.72,WNW,290,5.4,10.5,14,0.00,,---,0.00,VWS V13.01,2013-07-07 21:00:00,
2013-07-07 14:20:00,94.1,37.7,17.72,WNW,293,5.4,10.5,14,0.00,,---,0.00,VWS V13.01,2013-07-07 21:20:00,
2013-07-07 14:40:00,94.3,37.8,17.72,SSW,205,7.2,12.3,14,0.00,,---,0.00,VWS V13.01,2013-07-07 21:40:00,
2013-07-07 15:00:00,92.8,36.7,17.72,SSW,196,6.3,12.8,14,0.00,,---,0.00,VWS V13.01,2013-07-07 22:00:00,
2013-07-07 15:20:00,92.5,36.4,17.72,NW,321,4.9,8.7,14,0.00,,---,0.00,VWS V13.01,2013-07-07 22:20:00,
2013-07-07 15:40:00,92.5,36.4,17.72,WSW,237,6.3,9.2,14,0.00,,---,0.00,VWS V13.01,2013-07-07 22:40:00,
2013-07-07 16:00:00,92.1,36.1,17.72,NW,316,5.4,15.4,14,0.04,,---,0.04,VWS V13.01,2013-07-07 23:00:00,
2013-07-07 16:20:00,90.1,36.3,17.72,WNW,298,5.4,13.2,15,0.04,,---,0.04,VWS V13.01,2013-07-07 23:20:00,
2013-07-07 16:40:00,83.1,36.6,17.72,SSW,205,8.1,21.5,19,0.04,,---,0.04,VWS V13.01,2013-07-07 23:40:00,
2013-07-07 17:00:00,71.1,57.0,17.72,ENE,58,0.0,22.4,61,1.10,,---,1.10,VWS V13.01,2013-07-08 00:00:00,
2013-07-07 17:20:00,70.3,55.8,17.72,South,190,3.6,22.8,60,2.83,,---,2.87,VWS V13.01,2013-07-08 00:20:00,
2013-07-07 17:40:00,70.0,57.7,17.72,SSW,204,7.2,8.7,65,3.15,,---,3.19,VWS V13.01,2013-07-08 00:40:00,
2013-07-07 18:00:00,70.5,57.8,17.72,WSW,239,5.4,13.2,64,3.15,,---,3.19,VWS V13.01,2013-07-08 01:00:00,
2013-07-07 18:20:00,71.8,54.3,17.72,SSW,212,3.6,10.1,54,2.09,,---,3.19,VWS V13.01,2013-07-08 01:20:00,
2013-07-07 18:40:00,72.1,51.9,17.72,SSW,213,2.7,8.7,49,0.35,,---,3.23,VWS V13.01,2013-07-08 01:40:00,
2013-07-07 19:00:00,71.8,52.7,17.72,SW,235,3.6,8.3,51,0.04,,---,3.23,VWS V13.01,2013-07-08 02:00:00,
2013-07-07 19:20:00,72.5,50.6,17.72,SW,221,5.8,7.2,46,0.04,,---,3.23,VWS V13.01,2013-07-08 02:20:00,
2013-07-07 19:40:00,73.2,48.8,17.72,SW,223,3.1,8.3,42,0.04,,---,3.23,VWS V13.01,2013-07-08 02:40:00,
2013-07-07 20:00:00,73.4,48.9,17.72,SW,230,0.0,6.3,42,0.00,,---,3.23,VWS V13.01,2013-07-08 03:00:00,
2013-07-07 20:20:00,73.4,50.8,17.72,SE,140,0.0,5.8,45,0.00,,---,3.23,VWS V13.01,2013-07-08 03:20:00,
2013-07-07 20:40:00,73.9,51.3,17.72,ESE,123,3.6,6.7,45,0.00,,---,3.23,VWS V13.01,2013-07-08 03:40:00,
2013-07-07 21:00:00,73.8,52.3,17.72,SE,136,0.0,5.4,47,0.00,,---,3.23,VWS V13.01,2013-07-08 04:00:00,
2013-07-07 21:20:00,73.4,53.1,17.72,SE,136,0.0,0.0,49,0.00,,---,3.23,VWS V13.01,2013-07-08 04:20:00,
2013-07-07 21:40:00,73.4,53.7,17.72,SE,136,0.0,0.0,50,0.00,,---,3.23,VWS V13.01,2013-07-08 04:40:00,
2013-07-07 22:00:00,73.2,52.9,17.72,SW,221,3.1,4.0,49,0.00,,---,3.23,VWS V13.01,2013-07-08 05:00:00,
2013-07-07 22:20:00,73.2,51.8,17.72,SW,232,4.0,4.0,47,0.00,,---,3.23,VWS V13.01,2013-07-08 05:20:00,
2013-07-07 22:40:00,73.2,50.0,17.72,SW,225,0.0,4.0,44,0.00,,---,3.23,VWS V13.01,2013-07-08 05:40:00,
2013-07-07 23:00:00,73.4,49.6,17.72,SW,220,0.0,4.0,43,0.00,,---,3.23,VWS V13.01,2013-07-08 06:00:00,
2013-07-07 23:20:00,73.0,50.5,17.72,SW,220,0.0,0.0,45,0.00,,---,3.23,VWS V13.01,2013-07-08 06:20:00,
2013-07-07 23:40:00,72.7,51.9,17.72,SW,220,0.0,0.0,48,0.00,,---,3.23,VWS V13.01,2013-07-08 06:40:00,